FENGYUN 1C DEB

Satellite information

Favourite Embed

Satellite Type and Status

DEBRISIN ORBIT

Key statistics

Satellite FENGYUN 1C DEB at a glance.

Uptime

9714

Days in orbit

Revolutions

≈ 14.1

Per day

Orbit

SSO

Sun Synchronous Orbit

Inclination

102.8

Latest

Satellite identification and parameters

Extended collection of information and parameters for FENGYUN 1C DEB.

Object identification

Identified? True

Debris? True

Object name: FENGYUN 1C DEB

International designator: 1999-025CBE

Object number (NORAD): 31648

Object ID (CCSDS): 31648

Country: PEOPLES REPUBLIC OF CHINA (PRC)

Current information (Y/N): Y

RCS size: SMALL

Orbital parameters

Period: 101.836 minutes

Inclination: 102.7919 deg

SMA: 7223.701 km

Apoapsis: 878.168 km

Periapsis: 812.965 km

RAAN: 37.025 deg

Eccentricy: 0.00451314

Argument of periapsis: 26.644 deg

Mean anomaly: 333.7023 deg

Mean motion: 14.1404461 rev/day

Mean motion (dot): 0.00001933 rev/day2

B* drag term: 0.0010473611 1/REarth

Two-line elements (TLE)

Creation date: Sept. 11, 2025, 3:57 a.m.

Reference frame: TEME

Reference center: EARTH

Epoch: Sept. 10, 2025, 3:22 p.m. UTC

TLE line 0: 0 FENGYUN 1C DEB

TLE line 1: 1 31648U 99025CBE 25253.64034145 .00001933 00000-0 10474-2 0 9995

TLE line 2: 2 31648 102.7919 37.0250 0045131 26.6440 333.7023 14.14044610705813

Live tracking on map

Real-time ground track for satellite FENGYUN 1C DEB.

In-orbit conjunctions

A list of the most updated potential collisions computed for object FENGYUN 1C DEB.

Target Orbit TCA Probability of collision Miss distance Type
COSMOS 2082 LEO 2024-12-11 22:26:13 0.0001293994 460.0 (m) PAYLOAD

Associated space launch

Chinese polar orbiting meteorological satellite

FENGYUN 1C DEB was lifted into orbit during the mission ‘Long March 4B | Feng Yun 1C’, on board a Long March 4B space rocket.

The launch took place on May 10, 1999, 1:33 a.m. from Launch Complex 7.

For more information about the launch, click the button.

Launch to space Long March 4B | Feng Yun 1C
Long March 4B | Feng Yun 1C

Agency: N/A

Status: Launch Successful

Launch date: May 10, 1999, 1:33 a.m. UTC

Rocket: Long March 4B

Launch pad: Launch Complex 7

Location: Taiyuan Satellite Launch Center, People's Republic of China

...

Latest news about this satellite

There are no fresh news available about this satellite. Check back as we update our databases every day.


Newsletter sign-up

Weekly statistics, charts and insights to help you stay on top of the space industry.